Regional Weather Roundup
Issued by NWS Grand Forks, ND

Home | Current Version | Previous Version | Text Only | Print | Product List | Glossary On
Versions: 1 2 3 4 5 6 7 8 9 10 11 12 13 14 15 16 17 18 19 20 21 22 23 24 25 26 27 28 29 30 31 32 33 34 35 36 37 38 39 40 41 42 43 44 45 46 47 48 49 50
000
ASUS43 KFGF 241410
RWRFGF
PRAIRIE TO PINES  WEATHER ROUNDUP
NATIONAL WEATHER SERVICE EASTERN NORTH DAKOTA/GRAND FORKS ND
900 AM CDT THU MAY 24 2018

 **SATELLITE DATA USED TO AUGMENT SKY COVER AT AUTOMATED STATIONS**
 *****  WEATHER ACROSS EASTERN NORTH DAKOTA  *****

CITY           SKY/WX    TMP DP  RH WIND       PRES   REMARKS
GRAND FORKS    PTSUNNY   72  67  84 S13       29.81F
GRAND FRKS AFB FAIR      72  69  89 S13       29.81F
GRAND FRKS NWS   N/A     73  66  78 S15       29.79F
DEVILS LAKE    FAIR      69  63  81 SE8       29.81F
FARGO          FAIR      76  64  66 S15       29.85R
WAHPETON ARPT  FAIR      72  61  68 S14G22    29.87S
$$

 ***** WEATHER ACROSS CENTRAL AND WESTERN NORTH DAKOTA  *****

CITY           SKY/WX    TMP DP  RH WIND       PRES   REMARKS
BISMARCK       FAIR      69  58  67 SW7       29.83F
MINOT          FAIR      71  61  70 S6        29.76F
JAMESTOWN      FAIR      73  61  65 S13       29.83S
MINOT AFB      FAIR      69  65  86 S3        29.75F
GARRISON         N/A     69  57  65 S13       29.78F
WILLISTON      FAIR      62  58  86 S8        29.78S
DICKINSON        N/A     66  52  60 W13       29.81S
HETTINGER      FAIR      64  51  62 W13       29.86S
$$

 *****  OTHER AIRPORT OBSERVATIONS IN OUR AREA  *****

CITY           SKY/WX    TMP DP  RH WIND       PRES   REMARKS
WALHALLA       FAIR      70  70 100 SE15G21   29.80S
GRAFTON AIRPOR FAIR      70  68  94 S13G18    29.82F
VALLEY CITY AR FAIR      72  72 100 S15       29.86F
CANDO          PTSUNNY   64  64 100 SE6       29.83S
CAVALIER APRT    N/A     70  64  83 S15       29.81R
GWINNER          N/A     70  63  78 SW8       29.88R
SHEYENNE NWR     N/A     72  66  81 S3        29.95S
ROLLA          FAIR      63  63 100 SE8       29.80R
 ***** THE ABOVE OBSERVATIONS ARE NON NWS ARE NOT QUALITY
       CONTROLLED AND MAY MIS-REPORT RAIN FOR SNOW...
$$

  *****  WEATHER ACROSS NORTHERN MINNESOTA  *****

CITY           SKY/WX    TMP DP  RH WIND       PRES   REMARKS
FLAG ISLAND    FAIR      68  63  83 E5        29.91F
WARROAD        FAIR      70  64  83 E9        29.91F
ROSEAU         FAIR      72  64  78 SE14      29.88F
HALLOCK        FAIR      73  64  73 SE15      29.81F
THF RVR FALLS  FAIR      73  64  73 S10       29.87F
BAUDETTE       CLOUDY    71  65  81 SE13      29.93F
WASKISH          N/A     70  64  83 SE12G17   29.94F
CROOKSTON      FAIR      75  64  69 S21       29.83F
STEPHEN NDAWN    N/A     73  64  73 S13         N/A
GREENBUSH NDAW   N/A     72  64  78 SE13        N/A
$$
  *****  WEATHER ACROSS CENTRAL AND WEST MINNESOTA  *****

CITY           SKY/WX    TMP DP  RH WIND       PRES   REMARKS
FOSSTON        FAIR      73  61  64 SE13      29.89S
BEMIDJI        FAIR      74  64  71 SE12      29.94F
PARK RAPIDS    FAIR      73  64  73 SE17G29   29.95F
ELBOW LAKE     FAIR      74  65  74 SE15G23   29.90F
WADENA         FAIR      73  64  73 S14       29.94F
DETROIT LAKES  FAIR      73  63  68 S13G18    29.92S
MOORHEAD       FAIR      75  63  64 S14G22    29.86S
FERGUS FALLS   FAIR      75  64  69 S15       29.85F
MORRIS MN      FAIR      75  66  73 S17       29.90F
STAPLES        FAIR      72  63  73 SE10G18   29.97F
$$
  *****  WEATHER ELSEWHERE ACROSS MINNESOTA  *****

CITY           SKY/WX    TMP DP  RH WIND       PRES   REMARKS
DULUTH         LGT RAIN  64  62  93 S6        30.06F
INTRNTL FALLS  LGT RAIN  65  64  97 S8        29.97F
ELY            FAIR      70  59  68 S9        30.04F
CLOQUET        RAIN      63  61  94 S7        30.06F
WHEATON        FAIR      73  63  68 S14G22    29.90R
BRAINERD       FAIR      71  65  81 SE8       30.00F
HIBBING        RAIN      62  62 100 CALM      30.05S FOG
ALEXANDRIA     FAIR      77  65  66 S16       29.96F
SAINT CLOUD    PTSUNNY   70  64  81 E9        30.01F
MINNEAPOLIS    PTSUNNY   78  66  66 S7        30.03F
$$

  *****  WEATHER ACROSS SOUTH DAKOTA  *****

CITY           SKY/WX    TMP DP  RH WIND       PRES   REMARKS
SIOUX FALLS    PTSUNNY   72  66  81 S17G23    29.96F
BROOKINGS      FAIR      70  65  84 S18       29.93S
WATERTOWN      FAIR      73  62  68 S12       29.91S
HURON          FAIR      71  58  63 S13       29.91S
SISSETON         N/A     75  63  66 S13       29.88R
ABERDEEN       FAIR      73  60  63 S16       29.89R
MITCHELL       FAIR      70  60  70 S18G29    29.91S
PIERRE         FAIR      66  57  72 SW9       29.88R
MOBRIDGE       FAIR      69  58  67 SW9       29.84S
RAPID CITY     FAIR      64  52  64 S13       29.92R
$$

  *****  SOME WEATHER IN NEARBY STATES *****

CITY           SKY/WX    TMP DP  RH WIND       PRES   REMARKS
GLASGOW MT     FAIR      60  58  92 NW6       29.79F
GREAT FALLS MT FAIR      64  50  60 SW17      29.87R
CHEYENNE WY    FAIR      60  41  49 W5        30.16S
SCOTTSBLUFF NE FAIR      59  54  83 NW10      30.04F
OMAHA NE       CLOUDY    74  66  76 S10       30.06R
DES MOINES IA  PTSUNNY   76  67  73 S8        30.08F
DAVENPORT IA   FAIR      75  59  57 S8        30.17F
CHICAGO IL     FAIR      74  54  49 S9        30.19F
EAU CLAIRE WI  FAIR      75  63  66 S7        30.08F
LA CROSSE WI   FAIR      74  59  59 S14       30.11S
$$

  *****  SOME NATIONAL WEATHER *****

CITY           SKY/WX    TMP DP  RH WIND       PRES   REMARKS
LA GUARDIA NY  FAIR      74  41  30 N10       30.12F
RALEIGH NC     PTSUNNY   76  63  64 E10       30.17R
ATLANTA GA     PTSUNNY   75  67  76 E6        30.13S
NEW ORLEANS LA FAIR      84  75  74 NE6       30.08R HX  92
OKLAHOMA CITY  FAIR      73  67  81 S7        30.08F
ALBUQUERQUE NM FAIR      63  23  21 VRB3      30.22R
SALT LAKE CITY PTSUNNY   59  45  58 SE10      30.10R
LOS ANGELES CA DRIZZLE   59  55  87 W5        30.07R FOG
BOISE ID       FAIR      61  55  81 SE8       30.01R
SEATTLE WA     CLOUDY    55  51  86 S9        30.04R
$$

*** WEATHER ACROSS MANITOBA...SASKATCHEWAN AND ONTARIO ***
                ***ONTARIO***

CITY           SKY/WX    TMP DP  RH WIND       PRES   REMARKS
GERALDTON      MOSUNNY   68  50  52 SW9       30.02F
THUNDER BAY    CLOUDY    57  45  62 NE7       30.06F
SIOUX LOOKOUT  CLOUDY    68  59  73 S5        29.98F
TORONTO        SUNNY     68  50  52 SE7       30.18F
BIG TROUT LK   SUNNY     70  46  43 W8        29.84F
PICKLE LAKE    MOSUNNY   72  48  43 W5        29.97F
DRYDEN         MOSUNNY   68  59  73 S9        29.98F
KENORA         LGT RAIN  66  61  82 S6        29.96F
$$
                *** MANITOBA***

CITY           SKY/WX    TMP DP  RH WIND       PRES   REMARKS
BRANDON        CLOUDY    64  63  94 E8        29.76F
DAUPHIN        SUNNY     68  59  73 N3        29.75F
ISLAND LAKE    MOSUNNY   73  52  46 S2        29.86F
PILOT MOUND      N/A     59  57  94 NW8         N/A
THE PAS        PTSUNNY   66  59  77 VRB2      29.78F
THOMPSON       MOSUNNY   75  50  41 W5        29.80F
WINNIPEG       PTSUNNY   75  64  69 SE17      29.79F
LYNN LAKE      SUNNY     79  48  34 W8        29.78F
CHURCHILL      MOSUNNY   43  36  75 NE7       29.78R
GILLAM         MOSUNNY   73  46  38 W10       29.74F
$$
                ***SASKATCHEWAN***

CITY           SKY/WX    TMP DP  RH WIND       PRES   REMARKS
ESTEVAN        MOSUNNY   66  57  72 SE9       29.75F
KINDERSLEY     MOSUNNY   63  55  77 SE8       29.74F
LLOYDMINSTER   LGT RAIN  59  55  88 SE5       29.78S
PRINCE ALBERT  CLOUDY    64  61  88 E6        29.78F
REGINA         PTSUNNY   59  57  94 NE13      29.76R
YORKTON        MOSUNNY   66  63  88 SE9       29.76F
N. BATTLEFORD  CLOUDY    61  59  94 S6        29.78F
LA RONGE       PTSUNNY   68  52  56 VRB2      29.77S
SASKATOON      PTSUNNY   66  57  72 E7        29.77F
SWIFT CURRENT  PTSUNNY   63  57  82 SW10      29.76S
$$
NOTE: THESE ARE AUTOMATED STATIONS WITH LIMITED QUALITY CONTROL
      "FAIR" INDICATES FEW OR NO CLOUDS BELOW 12,000 FEET WITH NO
      SIGNIFICANT WEATHER AND/OR OBSTRUCTIONS TO VISIBILITY.
      SKY/WX - SKY CONDITION AND SIGNIFICANT WEATHER.
      TMP - AIR TEMPERATURE.    DP   - DEWPOINT TEMPERATURE.
      RH  - RELATIVE HUMIDITY.  PRES - PRESSURE.
      HX  - HEAT INDEX.         WCI  - WIND CHILL INDEX.
$




USA.gov is the U.S. government's official web portal to all federal, state and local government web resources and services.